[[{"header":{"parameterUnit":"m.s-1","parameterCategory":2,"la1":30.2991,"la2":30.254,"lo1":-89.0895,"lo2":-89.0444,"dy":0.0017,"dx":0.0017,"nx":28,"ny":28,"refTime":"2025-01-02T03:00:00:Z","depth":"0","parameterNumber":2,"parameterNumberName":"U-component_of_CURRENTS"},"data":[0,0,0,0,0,0,0,0,0,0,0,0,0,0,0,0,0,0,0,0,0,0,0,0,0,0,0,0,0,0,0,0,0,0,0,0,0,0,0,0,0,0,0,0,0,0,0,0,0,0,0,0,0,0,0,0,0,0,0.3063,0.3063,0,0.3103,0.3104,0.3104,0.312,0.3121,0.3121,0.3121,0.3119,0.3118,0.3118,0,0,0,0,0,0,0,0,0,0,0,0,0,0.301,0.3011,0.3062,0.3063,0.3064,0.3103,0.3104,0.3104,0.312,0.3121,0.3121,0.3121,0.3119,0.3118,0.3118,0,0,0,0,0,0,0,0,0,0,0,0,0,0.3036,0.3011,0.3062,0.308,0.3083,0.3103,0.3104,0.3104,0.312,0.3121,0.3121,0.3122,0.3119,0.3119,0.3118,0.3106,0,0,0.3116,0.3116,0,0,0,0,0,0,0,0,0.3035,0.3038,0.3077,0.3079,0.3082,0.3111,0.3085,0.3104,0.312,0.3102,0.3121,0.3122,0.3115,0.3114,0.3116,0.3106,0.3106,0.3116,0.3116,0.3116,0.3116,0,0,0,0,0,0,0,0.3033,0.3036,0.3074,0.3078,0.3081,0.3091,0.3094,0.3088,0.3101,0.3103,0.3106,0.3117,0.3115,0.3116,0.3116,0.3106,0.3116,0.3116,0.3116,0.3115,0.3141,0.3142,0,0,0,0,0,0,0.3035,0.3034,0.3073,0.3076,0.3064,0.3092,0.3096,0.3098,0.3102,0.3105,0.3116,0.3117,0.3117,0.3116,0.3116,0.3158,0.3116,0.3115,0.3115,0.314,0.3141,0.3142,0,0,0,0,0,0,0.3034,0.3038,0.3072,0.306,0.3066,0.3092,0.3095,0.3098,0.3103,0.3113,0.3114,0.3118,0.3117,0.3116,0.3127,0.3156,0.3115,0.3115,0.3139,0.314,0.3141,0.3207,0,0,0,0,0,0,0.3032,0.3037,0.3038,0.306,0.3067,0.3093,0.3095,0.3099,0.3111,0.3113,0.3115,0.3115,0.3118,0.3128,0.3126,0.3155,0.3114,0.3137,0.3139,0.3141,0.3203,0.321,0.3216,0,0,0,0,0,0.303,0.3028,0.3038,0.3043,0.3067,0.3094,0.3097,0.3115,0.3111,0.3119,0.3125,0.3116,0.3139,0.3128,0.3126,0.3155,0.3136,0.3139,0.3141,0.3201,0.3209,0.3216,0,0,0,0,0,0,0.2992,0.303,0.3042,0.3047,0.3075,0.3098,0.3107,0.3113,0.3123,0.3124,0.3122,0.3124,0.3148,0.3135,0.3124,0.3167,0.3138,0.314,0.3184,0.3192,0.3198,0.321,0.3114,0,0,0,0,0,0.2988,0.3004,0.3039,0.3043,0.3059,0.3081,0.3092,0.3107,0.3121,0.3125,0.3129,0.3135,0.3154,0.3159,0.3167,0.3181,0.3196,0.32,0.3206,0.3212,0.322,0.3275,0.3288,0.3149,0.3149,0.3149,0,0,0.2972,0.2998,0.3004,0.3039,0.3058,0.3088,0.3087,0.311,0.3137,0.3122,0.3147,0.3155,0.3162,0.3193,0.3202,0.3187,0.3259,0.3215,0.3219,0.3225,0.3279,0.3292,0.3305,0.3151,0.315,0.315,0,0,0.2962,0.2975,0.2994,0.3023,0.3067,0.3087,0.3095,0.3124,0.3142,0.3166,0.3175,0.3201,0.3207,0.3237,0.3248,0.3289,0.3292,0.3286,0.3329,0.3383,0.3395,0.3406,0.3447,0.3462,0.3289,0.329,0.329,0,0.2945,0.2974,0.3001,0.3034,0.3062,0.3088,0.3118,0.3141,0.3171,0.3197,0.3182,0.3235,0.3235,0.3299,0.3317,0.3307,0.3331,0.3301,0.3393,0.3404,0.3414,0.3454,0.3469,0.3293,0.3293,0.3292,0.3292,0,0.2961,0.2987,0.2999,0.3056,0.3085,0.3113,0.3161,0.319,0.3208,0.3238,0.3296,0.3307,0.3344,0.3351,0.3345,0.3422,0.3414,0.3397,0.3377,0.3433,0.3471,0.3485,0.3298,0.3297,0.3296,0.3295,0,0,0.2914,0.2997,0.3,0.3035,0.3103,0.3126,0.3184,0.3249,0.3292,0.3325,0.3385,0.3423,0.3435,0.3449,0.3455,0.3496,0.3586,0.3478,0.3479,0.3526,0.3705,0.3638,0.3647,0.3589,0.3592,0.3594,0.3705,0,0.2921,0.2984,0.3025,0.3079,0.3117,0.3171,0.3221,0.3284,0.3334,0.3397,0.3442,0.3491,0.3473,0.3495,0.3541,0.3578,0.3625,0.3557,0.3638,0.364,0.358,0.3662,0.3556,0.3641,0.3718,0.3721,0.3723,0,0.2921,0.2973,0.3026,0.311,0.3129,0.3159,0.3254,0.3305,0.3409,0.3453,0.3527,0.3559,0.3644,0.3604,0.3717,0.3676,0.3698,0.3717,0.3721,0.3645,0.36,0.3596,0.3664,0.3606,0.3744,0.3743,0.3741,0,0.2878,0.2965,0.3008,0.3036,0.3134,0.3165,0.3215,0.3315,0.3377,0.3492,0.3554,0.3648,0.3702,0.3758,0.38,0.3771,0.391,0.3874,0.3838,0.3833,0.3751,0.3734,0.3776,0.3952,0.3952,0.3952,0.3952,0,0.2863,0.2895,0.2988,0.3008,0.3057,0.3137,0.3197,0.327,0.3393,0.3456,0.3572,0.3641,0.3744,0.3829,0.3849,0.3897,0.3957,0.3868,0.3867,0.3769,0.3753,0.3702,0.3671,0.3956,0.3955,0.3954,0.3954,0,0.2794,0.2859,0.2906,0.3003,0.303,0.3058,0.3169,0.322,0.3355,0.3448,0.3491,0.367,0.3773,0.3866,0.3964,0.3956,0.3906,0.3995,0.3867,0.3847,0.3724,0.3699,0.3595,0.3475,0.398,0.398,0.3979,0,0.2763,0.2784,0.2869,0.2888,0.2922,0.2984,0.3023,0.3168,0.323,0.3437,0.3473,0.3642,0.3725,0.3888,0.3922,0.3986,0.387,0.3893,0.3807,0.3724,0.3698,0.355,0.3444,0.3736,0.3733,0.3731,0.3729,0,0.2702,0.2725,0.276,0.2798,0.2828,0.2874,0.2945,0.3,0.3156,0.3259,0.3388,0.3489,0.3682,0.3724,0.3833,0.3845,0.3723,0.3847,0.3809,0.3554,0.335,0.323,0.3652,0.371,0.3712,0.3713,0.3714,0.3715,0.2636,0.2633,0.267,0.2693,0.2727,0.2741,0.2736,0.2836,0.2916,0.3038,0.3204,0.3321,0.3515,0.3671,0.3664,0.3635,0.3582,0.3548,0.3543,0.3413,0.3231,0.3598,0.3614,0.3615,0.3616,0.3617,0.3618,0,0.2543,0.2552,0.2569,0.258,0.256,0.2616,0.2661,0.2645,0.2673,0.2845,0.2947,0.3151,0.3257,0.34,0.3493,0.3385,0.3216,0.3292,0.3089,0.3011,0.3408,0.3331,0.3226,0.3226,0.3226,0.3226,0.3226,0.3226,0.2492,0.2465,0.2471,0.2406,0.2407,0.2341,0.233,0.234,0.2433,0.2537,0.2665,0.2824,0.3171,0.3385,0.3352,0.3259,0.2998,0.2865,0.2824,0.3167,0.3191,0.3213,0.3135,0.299,0.299,0.2302,0.2297,0.2294]},{"header":{"parameterUnit":"m.s-1","parameterCategory":2,"la1":30.2991,"la2":30.254,"lo1":-89.0895,"lo2":-89.0444,"dy":0.0017,"dx":0.0017,"nx":28,"ny":28,"refTime":"2025-01-02T03:00:00:Z","depth":"0","parameterNumber":3,"parameterNumberName":"V-component_of_CURRENTS"},"data":[0,0,0,0,0,0,0,0,0,0,0,0,0,0,0,0,0,0,0,0,0,0,0,0,0,0,0,0,0,0,0,0,0,0,0,0,0,0,0,0,0,0,0,0,0,0,0,0,0,0,0,0,0,0,0,0,0,0,-0.0361,-0.0361,0,-0.0431,-0.0432,-0.0433,-0.0501,-0.0501,-0.0502,-0.0503,-0.0605,-0.0607,-0.0609,0,0,0,0,0,0,0,0,0,0,0,0,0,-0.0343,-0.0343,-0.0361,-0.0362,-0.0362,-0.0431,-0.0432,-0.0433,-0.05,-0.0501,-0.0502,-0.0503,-0.0604,-0.0606,-0.0609,0,0,0,0,0,0,0,0,0,0,0,0,0,-0.0376,-0.0343,-0.0361,-0.0404,-0.0408,-0.0431,-0.0432,-0.0433,-0.05,-0.0501,-0.0503,-0.0504,-0.0603,-0.0606,-0.0609,-0.0603,0,0,-0.0618,-0.0619,0,0,0,0,0,0,0,0,-0.0374,-0.0377,-0.0397,-0.0401,-0.0406,-0.0458,-0.0463,-0.0491,-0.05,-0.0466,-0.0503,-0.0504,-0.0557,-0.0564,-0.0575,-0.0608,-0.0612,-0.0618,-0.062,-0.0621,-0.0622,0,0,0,0,0,0,0,-0.0372,-0.0375,-0.0389,-0.0397,-0.0403,-0.044,-0.0445,-0.0469,-0.0505,-0.0469,-0.0474,-0.048,-0.056,-0.0572,-0.0578,-0.0614,-0.0618,-0.0621,-0.0623,-0.0624,-0.0672,-0.0672,0,0,0,0,0,0,-0.0357,-0.0372,-0.0387,-0.0391,-0.0392,-0.0439,-0.0445,-0.044,-0.0504,-0.0515,-0.0479,-0.0483,-0.0566,-0.0574,-0.0582,-0.0593,-0.0621,-0.0624,-0.0626,-0.0673,-0.0672,-0.0672,0,0,0,0,0,0,-0.0356,-0.0357,-0.0384,-0.0384,-0.039,-0.0437,-0.0432,-0.0441,-0.0453,-0.0511,-0.0523,-0.0482,-0.0568,-0.0578,-0.0604,-0.0597,-0.0625,-0.0628,-0.0673,-0.0673,-0.0672,-0.0607,0,0,0,0,0,0,-0.0355,-0.0356,-0.0348,-0.0382,-0.0389,-0.039,-0.0431,-0.0442,-0.0455,-0.0461,-0.0517,-0.0528,-0.0569,-0.0599,-0.0607,-0.0602,-0.063,-0.0674,-0.0673,-0.0672,-0.061,-0.0604,-0.0599,0,0,0,0,0,-0.0354,-0.033,-0.0347,-0.0349,-0.0376,-0.0389,-0.0396,-0.0435,-0.0454,-0.0452,-0.0494,-0.0526,-0.0599,-0.0601,-0.061,-0.0606,-0.0675,-0.0673,-0.0672,-0.0612,-0.0605,-0.0599,0,0,0,0,0,0,-0.0305,-0.0335,-0.0355,-0.0338,-0.0361,-0.04,-0.0399,-0.0425,-0.0455,-0.046,-0.0519,-0.0532,-0.0554,-0.0584,-0.0584,-0.0617,-0.0642,-0.0643,-0.0593,-0.0587,-0.0582,-0.0562,-0.0633,0,0,0,0,0,-0.0292,-0.0291,-0.0322,-0.0309,-0.0316,-0.0356,-0.0366,-0.0389,-0.0421,-0.0436,-0.0477,-0.0519,-0.0555,-0.0574,-0.0608,-0.0619,-0.0644,-0.0624,-0.0618,-0.0614,-0.0603,-0.0644,-0.0642,-0.0668,-0.0668,-0.0668,0,0,-0.027,-0.0286,-0.0285,-0.03,-0.0321,-0.0319,-0.0365,-0.0369,-0.0372,-0.044,-0.0455,-0.05,-0.0554,-0.0576,-0.0588,-0.06,-0.0615,-0.0612,-0.0608,-0.06,-0.0643,-0.0641,-0.0638,-0.0668,-0.0668,-0.0668,0,0,-0.0224,-0.0236,-0.0224,-0.0237,-0.026,-0.0283,-0.028,-0.0314,-0.0336,-0.0353,-0.0408,-0.0446,-0.0494,-0.0536,-0.0563,-0.0546,-0.0587,-0.0557,-0.0515,-0.0555,-0.0553,-0.0552,-0.0561,-0.0561,-0.0554,-0.0554,-0.0554,0,-0.0198,-0.0185,-0.022,-0.021,-0.0211,-0.0261,-0.0241,-0.0267,-0.0307,-0.0318,-0.0348,-0.0426,-0.0476,-0.0508,-0.0511,-0.0534,-0.0553,-0.0534,-0.0548,-0.0547,-0.0547,-0.0557,-0.0558,-0.0551,-0.0551,-0.0552,-0.0552,0,-0.0149,-0.0138,-0.0126,-0.0135,-0.0139,-0.0128,-0.0164,-0.0174,-0.0206,-0.024,-0.0278,-0.0351,-0.0396,-0.0424,-0.0466,-0.0488,-0.0499,-0.0537,-0.0562,-0.0541,-0.0552,-0.0554,-0.0546,-0.0547,-0.0548,-0.0549,0,0,-0.0087,-0.0093,-0.0088,-0.0076,-0.0097,-0.0088,-0.0091,-0.0107,-0.0099,-0.0163,-0.0165,-0.0253,-0.0296,-0.0329,-0.0391,-0.0435,-0.0455,-0.048,-0.0483,-0.0483,-0.052,-0.0503,-0.0504,-0.0498,-0.0498,-0.0499,-0.0521,0,-0.0039,-0.0,-0.0019,0.0024,0.0044,0.0007,0.0014,-0.0007,-0.0041,-0.0056,-0.0146,-0.0176,-0.0259,-0.0279,-0.0337,-0.0422,-0.046,-0.0443,-0.0544,-0.0546,-0.0531,-0.0506,-0.0489,-0.0506,-0.0524,-0.0524,-0.0524,0,0.0019,0.0035,0.0085,0.0108,0.0116,0.0131,0.0144,0.0142,0.0098,0.0068,0.0011,-0.0053,-0.0124,-0.02,-0.0332,-0.0316,-0.0407,-0.0481,-0.0485,-0.0493,-0.0534,-0.0535,-0.051,-0.0686,-0.0528,-0.0528,-0.0528,0,0.0089,0.0116,0.0161,0.0168,0.018,0.0199,0.0203,0.0182,0.0202,0.0148,0.0158,0.0048,0.002,-0.0123,-0.027,-0.0302,-0.0404,-0.0471,-0.0539,-0.0538,-0.0554,-0.0554,-0.0708,-0.0563,-0.0563,-0.0563,-0.0563,0,0.0154,0.0192,0.0198,0.0225,0.0291,0.027,0.0331,0.0312,0.0312,0.0353,0.023,0.025,0.0037,-0.0045,-0.0215,-0.0359,-0.0361,-0.0516,-0.0544,-0.0528,-0.0525,-0.0705,-0.0822,-0.0564,-0.0564,-0.0563,-0.0563,0,0.0225,0.0227,0.0283,0.0308,0.0328,0.0373,0.043,0.0471,0.0449,0.0502,0.0496,0.0418,0.031,0.0109,-0.0095,-0.0255,-0.0521,-0.0476,-0.0422,-0.0443,-0.0686,-0.0799,-0.0987,-0.106,-0.056,-0.056,-0.0559,0,0.0263,0.0299,0.0354,0.0403,0.0419,0.0482,0.0536,0.0539,0.0596,0.0618,0.0664,0.0589,0.0562,0.0285,-0.0013,-0.0282,-0.0487,-0.0452,-0.0528,-0.0681,-0.0829,-0.0925,-0.0979,-0.0518,-0.0518,-0.0517,-0.0517,0,0.0336,0.0354,0.0403,0.05,0.0568,0.0649,0.0726,0.0801,0.0818,0.0874,0.0947,0.0934,0.0676,0.0436,0.0066,-0.0151,-0.0581,-0.045,-0.0641,-0.0827,-0.0912,-0.0998,-0.0504,-0.0513,-0.0513,-0.0514,-0.0514,-0.0514,0.0395,0.0443,0.0513,0.0611,0.0692,0.0805,0.089,0.0988,0.1108,0.1207,0.1181,0.1195,0.0819,0.0326,0.0022,-0.0522,-0.056,-0.0704,-0.0829,-0.091,-0.0988,-0.046,-0.0484,-0.0485,-0.0485,-0.0485,-0.0485,0,0.0469,0.0526,0.0621,0.0736,0.0837,0.0863,0.1015,0.111,0.1271,0.1372,0.1438,0.1277,0.0808,0.0297,-0.0419,-0.0818,-0.0995,-0.1056,-0.1212,-0.1251,-0.0804,-0.0808,-0.0865,-0.0865,-0.0865,-0.0865,-0.0864,-0.0864,0.0512,0.0614,0.0661,0.0842,0.0924,0.1064,0.1154,0.1301,0.1413,0.155,0.1577,0.1564,0.1186,-0.0108,-0.0997,-0.1222,-0.153,-0.1602,-0.1746,-0.1473,-0.145,-0.1429,-0.1461,-0.1653,-0.1654,-0.2132,-0.2137,-0.2141]}],[{"header":{"parameterUnit":"m.s-1","parameterCategory":2,"la1":30.2991,"la2":30.254,"lo1":-89.0895,"lo2":-89.0444,"dy":0.0017,"dx":0.0017,"nx":28,"ny":28,"refTime":"2025-01-02T03:00:00:Z","depth":"2","parameterNumber":2,"parameterNumberName":"U-component_of_CURRENTS"},"data":[0,0,0,0,0,0,0,0,0,0,0,0,0,0,0,0,0,0,0,0,0,0,0,0,0,0,0,0,0,0,0,0,0,0,0,0,0,0,0,0,0,0,0,0,0,0,0,0,0,0,0,0,0,0,0,0,0,0,0.2784,0.2786,0,0.2832,0.2832,0.2832,0.2844,0.2845,0.2845,0.2846,0.2879,0.288,0.288,0,0,0,0,0,0,0,0,0,0,0,0,0,0.2666,0.2667,0.2784,0.2786,0.2787,0.2832,0.2832,0.2832,0.2844,0.2845,0.2845,0.2846,0.2879,0.288,0.288,0,0,0,0,0,0,0,0,0,0,0,0,0,0.2708,0.2668,0.2784,0.2804,0.2807,0.2832,0.2832,0.2832,0.2844,0.2845,0.2845,0.2846,0.2879,0.2879,0.288,0.2873,0,0,0.2883,0.2883,0,0,0,0,0,0,0,0,0.2706,0.2712,0.28,0.2803,0.2806,0.284,0.2803,0.2848,0.2844,0.2822,0.2846,0.2846,0.2869,0.2871,0.2868,0.2874,0.2876,0.2883,0.2883,0.2883,0.2884,0,0,0,0,0,0,0,0.2703,0.271,0.2795,0.2801,0.2805,0.2798,0.2805,0.2811,0.2835,0.2824,0.2827,0.2844,0.287,0.2867,0.2869,0.2876,0.2883,0.2883,0.2884,0.2884,0.2949,0.295,0,0,0,0,0,0,0.2714,0.2707,0.2794,0.2798,0.2765,0.2801,0.2807,0.2822,0.2836,0.2841,0.2844,0.2845,0.2865,0.2868,0.287,0.2935,0.2883,0.2884,0.2885,0.2947,0.2949,0.295,0,0,0,0,0,0,0.2711,0.2721,0.2792,0.276,0.2769,0.2803,0.2819,0.2823,0.2834,0.2852,0.2855,0.2854,0.2866,0.2869,0.2895,0.2934,0.2885,0.2885,0.2946,0.2948,0.295,0.3019,0,0,0,0,0,0,0.2708,0.272,0.2729,0.276,0.2772,0.2816,0.2819,0.2824,0.2847,0.2849,0.2862,0.2865,0.2866,0.2894,0.2896,0.2934,0.2886,0.2944,0.2947,0.2949,0.3015,0.3023,0.3029,0,0,0,0,0,0.2703,0.2717,0.2729,0.274,0.2785,0.2817,0.2821,0.2841,0.2847,0.2852,0.2869,0.2865,0.291,0.2895,0.2897,0.2937,0.2943,0.2946,0.2949,0.3012,0.3021,0.3029,0,0,0,0,0,0,0.268,0.2721,0.2735,0.2763,0.2793,0.2822,0.2838,0.2847,0.2862,0.2872,0.2876,0.288,0.2919,0.2913,0.2896,0.2962,0.2928,0.2931,0.2975,0.2984,0.2991,0.2988,0.2886,0,0,0,0,0,0.2678,0.2697,0.2737,0.2764,0.2781,0.2809,0.2824,0.2842,0.2866,0.2873,0.2886,0.2904,0.2929,0.2944,0.2957,0.2988,0.2992,0.3015,0.3023,0.3029,0.3028,0.3084,0.3097,0.2959,0.2959,0.2959,0,0,0.2678,0.2707,0.2717,0.276,0.2786,0.2815,0.2818,0.2855,0.2884,0.2875,0.2914,0.2927,0.2941,0.2982,0.3,0.2985,0.3069,0.3032,0.3038,0.3033,0.3089,0.3102,0.3114,0.2961,0.2961,0.2961,0,0,0.269,0.2715,0.2732,0.276,0.2809,0.2828,0.2842,0.288,0.2901,0.2938,0.2948,0.2981,0.3009,0.3033,0.3047,0.3098,0.3103,0.3111,0.3152,0.3208,0.322,0.323,0.3248,0.326,0.3119,0.3119,0.3119,0,0.2683,0.2721,0.2743,0.2774,0.2806,0.2837,0.287,0.2896,0.2937,0.2966,0.2961,0.3028,0.3034,0.3098,0.3118,0.3116,0.314,0.312,0.3219,0.3229,0.3239,0.3255,0.3267,0.3123,0.3122,0.3122,0.3121,0,0.2711,0.2743,0.2763,0.281,0.2842,0.2879,0.2927,0.2962,0.2992,0.3021,0.3087,0.31,0.3146,0.3156,0.3153,0.3233,0.3223,0.322,0.3198,0.3257,0.327,0.3281,0.3128,0.3126,0.3125,0.3124,0,0,0.2676,0.2762,0.2765,0.2799,0.2868,0.2895,0.296,0.3022,0.3069,0.3111,0.3178,0.3216,0.3234,0.325,0.3261,0.3299,0.338,0.3295,0.3296,0.3315,0.3493,0.3443,0.345,0.3412,0.3414,0.3416,0.3472,0,0.2688,0.2748,0.2792,0.2851,0.2887,0.2948,0.2998,0.3062,0.3119,0.3188,0.3233,0.3286,0.3271,0.3301,0.3348,0.3373,0.3415,0.3364,0.343,0.343,0.3383,0.3463,0.32,0.3225,0.3483,0.3485,0.3486,0,0.2694,0.2734,0.2794,0.2879,0.29,0.294,0.3038,0.309,0.3196,0.3247,0.3328,0.3362,0.3435,0.3409,0.3497,0.3474,0.3493,0.3499,0.3502,0.3437,0.3403,0.3209,0.3236,0.3504,0.3503,0.3502,0.35,0,0.2652,0.2734,0.2783,0.2812,0.2907,0.2952,0.3006,0.3107,0.3168,0.3291,0.3349,0.3443,0.3496,0.3547,0.3573,0.3552,0.3657,0.363,0.3597,0.3592,0.3368,0.334,0.3697,0.3697,0.3697,0.3697,0.3697,0,0.2646,0.2674,0.2767,0.2791,0.2841,0.2927,0.3001,0.3073,0.32,0.3261,0.3374,0.3437,0.3538,0.3608,0.3619,0.365,0.3705,0.3617,0.3618,0.3383,0.3357,0.3594,0.3581,0.3699,0.3699,0.3698,0.3698,0,0.2583,0.265,0.2696,0.2794,0.2824,0.2856,0.2984,0.3037,0.3167,0.326,0.3303,0.3465,0.3548,0.3628,0.3709,0.37,0.3728,0.3723,0.3426,0.3392,0.3607,0.3597,0.3689,0.3689,0.3688,0.3687,0.3686,0,0.2555,0.2583,0.2668,0.2693,0.2735,0.2807,0.285,0.2996,0.3058,0.3245,0.3276,0.3426,0.3498,0.3627,0.3644,0.3681,0.3724,0.344,0.3351,0.3622,0.3614,0.3605,0.3597,0.307,0.3064,0.306,0.3056,0,0.2497,0.2532,0.2567,0.2611,0.2658,0.2706,0.2787,0.2834,0.2987,0.3079,0.319,0.3276,0.3428,0.3372,0.3457,0.3432,0.3416,0.335,0.3729,0.3124,0.3046,0.3035,0.3046,0.3015,0.3019,0.3022,0.3025,0.3026,0.2441,0.244,0.2492,0.2521,0.2565,0.2583,0.2587,0.2681,0.2755,0.2847,0.3,0.3042,0.3127,0.3135,0.3067,0.3029,0.3255,0.3097,0.3108,0.3124,0.3054,0.298,0.2922,0.2925,0.2928,0.293,0.2933,0,0.2366,0.2377,0.2403,0.2425,0.2416,0.248,0.252,0.2499,0.2518,0.2633,0.2717,0.2566,0.2573,0.2645,0.2548,0.2586,0.2526,0.2462,0.2345,0.239,0.2429,0.2318,0.1993,0.199,0.1987,0.1984,0,0,0.2325,0.2304,0.2309,0.2265,0.2281,0.2231,0.2221,0.2207,0.2253,0.2236,0.2247,0.2454,0.2581,0.2238,0.2226,0.2084,0.2205,0.2007,0.2772,0.2679,0.2713,0.2824,0.2711,0,0,0,0,0]},{"header":{"parameterUnit":"m.s-1","parameterCategory":2,"la1":30.2991,"la2":30.254,"lo1":-89.0895,"lo2":-89.0444,"dy":0.0017,"dx":0.0017,"nx":28,"ny":28,"refTime":"2025-01-02T03:00:00:Z","depth":"2","parameterNumber":3,"parameterNumberName":"V-component_of_CURRENTS"},"data":[0,0,0,0,0,0,0,0,0,0,0,0,0,0,0,0,0,0,0,0,0,0,0,0,0,0,0,0,0,0,0,0,0,0,0,0,0,0,0,0,0,0,0,0,0,0,0,0,0,0,0,0,0,0,0,0,0,0,-0.005,-0.005,0,-0.0119,-0.0119,-0.012,-0.0162,-0.0162,-0.0162,-0.0163,-0.027,-0.0272,-0.0275,0,0,0,0,0,0,0,0,0,0,0,0,0,0.0026,0.0025,-0.0049,-0.005,-0.0052,-0.0119,-0.0119,-0.012,-0.0161,-0.0162,-0.0162,-0.0163,-0.0269,-0.0272,-0.0275,0,0,0,0,0,0,0,0,0,0,0,0,0,-0.002,0.0024,-0.0049,-0.0082,-0.0085,-0.0118,-0.0119,-0.012,-0.0161,-0.0162,-0.0162,-0.0163,-0.0268,-0.0272,-0.0275,-0.0287,0,0,-0.0287,-0.0289,0,0,0,0,0,0,0,0,-0.0017,-0.0022,-0.0076,-0.008,-0.0084,-0.0134,-0.0132,-0.0179,-0.0161,-0.013,-0.0163,-0.0163,-0.0229,-0.0236,-0.0244,-0.0292,-0.0297,-0.0287,-0.0289,-0.0291,-0.0292,0,0,0,0,0,0,0,-0.0014,-0.002,-0.0075,-0.0077,-0.0082,-0.01,-0.0107,-0.0141,-0.0175,-0.0133,-0.0137,-0.0148,-0.0231,-0.024,-0.0247,-0.0299,-0.0287,-0.029,-0.0293,-0.0294,-0.0369,-0.0369,0,0,0,0,0,0,-0.0008,-0.0016,-0.0073,-0.0077,-0.0053,-0.0101,-0.0109,-0.0116,-0.0174,-0.0183,-0.0147,-0.0149,-0.0234,-0.0243,-0.0251,-0.0271,-0.0291,-0.0295,-0.0297,-0.0369,-0.0369,-0.0369,0,0,0,0,0,0,-0.0006,-0.0012,-0.007,-0.005,-0.0059,-0.0102,-0.0109,-0.0117,-0.0129,-0.0184,-0.0194,-0.0152,-0.0234,-0.0246,-0.0278,-0.0276,-0.0296,-0.03,-0.037,-0.0369,-0.0369,-0.031,0,0,0,0,0,0,-0.0003,-0.001,-0.0012,-0.005,-0.006,-0.0078,-0.0109,-0.0118,-0.0135,-0.0139,-0.0192,-0.0202,-0.0236,-0.0272,-0.0281,-0.0281,-0.0303,-0.037,-0.037,-0.0369,-0.0312,-0.0307,-0.0303,0,0,0,0,0,-0.0,0.0004,-0.0011,-0.0019,-0.0061,-0.0078,-0.0084,-0.0116,-0.0135,-0.013,-0.0171,-0.0201,-0.0275,-0.0274,-0.0286,-0.0287,-0.037,-0.037,-0.0369,-0.0314,-0.0308,-0.0303,0,0,0,0,0,0,0.0029,-0.0001,-0.0019,-0.0027,-0.0047,-0.0085,-0.009,-0.0112,-0.014,-0.0148,-0.0199,-0.0211,-0.0237,-0.0269,-0.0266,-0.0306,-0.0328,-0.0329,-0.0282,-0.0277,-0.0273,-0.0237,-0.0306,0,0,0,0,0,0.0036,0.0034,0.0,-0.0007,-0.0015,-0.0052,-0.0065,-0.0085,-0.0117,-0.0129,-0.0169,-0.0211,-0.0243,-0.0264,-0.0296,-0.032,-0.0343,-0.0328,-0.0323,-0.0319,-0.0298,-0.0345,-0.0343,-0.0367,-0.0367,-0.0367,0,0,0.0043,0.0026,0.0023,-0.0,-0.0022,-0.002,-0.006,-0.0074,-0.0075,-0.0138,-0.0154,-0.0196,-0.0245,-0.0268,-0.0283,-0.0296,-0.0323,-0.0319,-0.0315,-0.0295,-0.0344,-0.0342,-0.034,-0.0366,-0.0367,-0.0367,0,0,0.0068,0.0043,0.0056,0.0045,0.0019,0.0,-0.0,-0.0036,-0.0053,-0.0076,-0.0119,-0.0151,-0.021,-0.0234,-0.0257,-0.0247,-0.0296,-0.027,-0.0224,-0.027,-0.0269,-0.0267,-0.0282,-0.0282,-0.0271,-0.0271,-0.0271,0,0.008,0.0087,0.0057,0.0067,0.0064,0.0015,0.0033,0.001,-0.0032,-0.004,-0.0073,-0.0144,-0.0187,-0.0206,-0.0204,-0.0235,-0.0266,-0.024,-0.0264,-0.0263,-0.0263,-0.0278,-0.028,-0.0268,-0.0268,-0.0269,-0.0269,0,0.0117,0.0121,0.0127,0.0128,0.0123,0.0126,0.0096,0.0085,0.005,0.0024,-0.0008,-0.007,-0.0111,-0.0135,-0.017,-0.0187,-0.0209,-0.0251,-0.0274,-0.0257,-0.0274,-0.0277,-0.0264,-0.0265,-0.0266,-0.0267,0,0,0.0157,0.0156,0.016,0.0176,0.0157,0.0162,0.0161,0.0154,0.0161,0.01,0.0101,0.0035,-0.001,-0.0036,-0.0092,-0.0129,-0.0155,-0.0187,-0.0191,-0.0193,-0.0243,-0.0259,-0.0264,-0.0217,-0.0217,-0.0217,-0.0252,0,0.0199,0.024,0.0225,0.0264,0.0285,0.025,0.0261,0.0245,0.0212,0.0199,0.0126,0.01,0.0028,0.0005,-0.0046,-0.0122,-0.0161,-0.014,-0.0265,-0.0267,-0.0279,-0.0267,-0.0242,-0.0271,-0.0254,-0.0255,-0.0255,0,0.0247,0.0271,0.0319,0.0345,0.0352,0.0364,0.0379,0.038,0.0344,0.0314,0.0263,0.0203,0.015,0.0075,-0.0044,-0.0035,-0.0128,-0.0193,-0.0197,-0.023,-0.0288,-0.0289,-0.0276,-0.026,-0.0259,-0.0259,-0.0259,0,0.0306,0.0339,0.0384,0.039,0.0409,0.0423,0.0428,0.0413,0.0435,0.0382,0.0388,0.0293,0.0261,0.0127,-0.0014,-0.0037,-0.0145,-0.0199,-0.0295,-0.0296,-0.0304,-0.0305,-0.0286,-0.0286,-0.0286,-0.0286,-0.0286,0,0.0361,0.0399,0.0412,0.0438,0.05,0.0483,0.0536,0.052,0.0522,0.0561,0.0448,0.0459,0.0268,0.018,0.0025,-0.0129,-0.0124,-0.0268,-0.0308,-0.0281,-0.028,-0.0299,-0.0299,-0.0287,-0.0287,-0.0287,-0.0287,0,0.0415,0.0423,0.048,0.051,0.0528,0.0567,0.0616,0.0658,0.0636,0.0682,0.0673,0.0594,0.0475,0.029,0.0095,-0.0055,-0.0215,-0.0279,-0.0216,-0.0248,-0.0341,-0.0338,-0.0376,-0.0377,-0.0378,-0.0378,-0.0379,0,0.0447,0.0478,0.0538,0.0581,0.0594,0.065,0.0701,0.0709,0.076,0.0773,0.0812,0.0721,0.0671,0.0389,0.011,-0.0147,-0.02,-0.0302,-0.0346,-0.0316,-0.0351,-0.0347,-0.0344,-0.0326,-0.0326,-0.0326,-0.0326,0,0.0507,0.052,0.057,0.0658,0.0717,0.0795,0.086,0.0927,0.0947,0.0991,0.1031,0.0997,0.0732,0.0482,0.0119,-0.0066,-0.0261,-0.0311,-0.0303,-0.031,-0.0273,-0.0306,-0.0303,-0.0327,-0.0327,-0.0327,-0.0327,-0.0327,0.055,0.0594,0.0655,0.0741,0.0817,0.0917,0.0991,0.1075,0.1174,0.1238,0.1202,0.1149,0.0861,0.0408,0.009,-0.0256,-0.0246,-0.0373,-0.0371,-0.037,-0.036,-0.0328,-0.0387,-0.0387,-0.0388,-0.0388,-0.0388,0,0.0598,0.0651,0.0735,0.0836,0.0926,0.0957,0.1091,0.1166,0.129,0.1342,0.1367,0.1096,0.0814,0.0469,-0.0032,-0.0326,-0.0358,-0.0427,-0.0397,-0.0394,-0.0392,-0.0383,-0.0417,-0.0418,-0.0419,-0.0419,0,0,0.0627,0.0713,0.0756,0.0907,0.0982,0.1106,0.1186,0.1298,0.1364,0.1415,0.1388,0.1331,0.0919,0.0559,0.0158,-0.0132,-0.0202,-0.0197,-0.0142,-0.0056,-0.0051,-0.0328,-0.0308,0,0,0,0,0]}],[{"header":{"parameterUnit":"m.s-1","parameterCategory":2,"la1":30.2991,"la2":30.254,"lo1":-89.0895,"lo2":-89.0444,"dy":0.0017,"dx":0.0017,"nx":28,"ny":28,"refTime":"2025-01-02T03:00:00:Z","depth":"4","parameterNumber":2,"parameterNumberName":"U-component_of_CURRENTS"},"data":[0,0,0,0,0,0,0,0,0,0,0,0,0,0,0,0,0,0,0,0,0,0,0,0,0,0,0,0,0,0,0,0,0,0,0,0,0,0,0,0,0,0,0,0,0,0,0,0,0,0,0,0,0,0,0,0,0,0,0.17,0.1701,0,0.1779,0.178,0.1781,0.1825,0.1825,0.1826,0.1826,0.19,0.1901,0.1903,0,0,0,0,0,0,0,0,0,0,0,0,0,0.1584,0.1586,0.17,0.1701,0.1702,0.1779,0.178,0.1781,0.1825,0.1825,0.1826,0.1826,0.1899,0.1901,0.1903,0,0,0,0,0,0,0,0,0,0,0,0,0,0.1644,0.1586,0.17,0.1735,0.1739,0.1779,0.178,0.1781,0.1825,0.1825,0.1826,0.1826,0.1898,0.1901,0.1903,0.1909,0,0,0.1911,0.1912,0,0,0,0,0,0,0,0,0.1641,0.1648,0.1728,0.1732,0.1737,0.1794,0.1766,0.1824,0.1825,0.179,0.1826,0.1827,0.1865,0.187,0.1881,0.1913,0.1916,0.1911,0.1913,0.1914,0.1915,0,0,0,0,0,0,0,0.1636,0.1645,0.1729,0.173,0.1735,0.1746,0.1755,0.1777,0.1822,0.1793,0.1797,0.1809,0.1867,0.1879,0.1883,0.1917,0.1911,0.1913,0.1915,0.1916,0.2043,0.2045,0,0,0,0,0,0,0.163,0.1641,0.1727,0.1732,0.1691,0.1748,0.1758,0.1774,0.1822,0.1831,0.1808,0.1811,0.1874,0.188,0.1886,0.1973,0.1914,0.1916,0.1918,0.2041,0.2043,0.2045,0,0,0,0,0,0,0.1628,0.1637,0.1724,0.1689,0.1701,0.1749,0.1767,0.1775,0.1823,0.1834,0.1842,0.1852,0.1875,0.1883,0.1937,0.1974,0.1917,0.192,0.2039,0.2042,0.2044,0.2098,0,0,0,0,0,0,0.1624,0.1636,0.1664,0.1689,0.1703,0.1765,0.1767,0.1777,0.1828,0.1833,0.1874,0.1879,0.1876,0.1933,0.1939,0.1976,0.1922,0.2036,0.204,0.2043,0.2094,0.2103,0.211,0,0,0,0,0,0.162,0.1646,0.1664,0.1676,0.1734,0.1767,0.1775,0.1809,0.183,0.1853,0.1886,0.1879,0.196,0.1937,0.1944,0.1982,0.2035,0.2039,0.2043,0.2091,0.2101,0.211,0,0,0,0,0,0,0.1609,0.1654,0.1674,0.1715,0.1749,0.1775,0.1809,0.1831,0.1877,0.1895,0.1903,0.1911,0.1972,0.1973,0.1947,0.203,0.1996,0.2002,0.203,0.204,0.2048,0.2043,0.1924,0,0,0,0,0,0.1619,0.1656,0.1692,0.1728,0.1751,0.1789,0.1816,0.1839,0.1874,0.1897,0.1926,0.1959,0.1989,0.2012,0.2036,0.2083,0.2089,0.2112,0.212,0.2127,0.2129,0.2168,0.2179,0.2059,0.2059,0.2059,0,0,0.1627,0.1657,0.168,0.173,0.1764,0.1796,0.1807,0.1858,0.1891,0.1897,0.1966,0.1992,0.2009,0.2059,0.2087,0.2069,0.2169,0.2132,0.2137,0.2136,0.2174,0.2185,0.2195,0.2062,0.2061,0.2061,0,0,0.1641,0.1688,0.1718,0.1751,0.1808,0.1829,0.1852,0.1902,0.1937,0.1996,0.2012,0.206,0.2111,0.2127,0.214,0.2207,0.2209,0.2226,0.2263,0.2301,0.2311,0.2319,0.2356,0.2367,0.2229,0.2229,0.2229,0,0.1652,0.1692,0.1732,0.1766,0.1801,0.1847,0.1883,0.192,0.1983,0.2019,0.2027,0.2121,0.2137,0.2193,0.2217,0.2224,0.225,0.2223,0.231,0.2319,0.2327,0.2362,0.2373,0.2232,0.2231,0.2231,0.2231,0,0.1672,0.1722,0.1745,0.1803,0.1843,0.1887,0.1937,0.1991,0.2042,0.2076,0.216,0.2188,0.2243,0.2259,0.226,0.2331,0.2333,0.2315,0.2282,0.2342,0.2375,0.2387,0.2236,0.2235,0.2234,0.2233,0,0,0.1655,0.1743,0.1756,0.1793,0.1872,0.1901,0.1972,0.204,0.2093,0.216,0.2228,0.2285,0.2317,0.2335,0.2352,0.2383,0.2464,0.2382,0.2383,0.2411,0.2563,0.2416,0.2415,0.2469,0.2471,0.2473,0.2568,0,0.1665,0.1725,0.1774,0.1843,0.1878,0.1951,0.2007,0.2079,0.2144,0.222,0.2272,0.2341,0.2341,0.2384,0.2419,0.2457,0.2496,0.244,0.2506,0.2508,0.2364,0.2422,0.2479,0.2576,0.2579,0.2581,0.2582,0,0.1663,0.1708,0.1771,0.1866,0.1892,0.1945,0.2053,0.211,0.2217,0.2273,0.2354,0.2401,0.2483,0.2463,0.2561,0.2534,0.2559,0.2574,0.2577,0.2425,0.2381,0.2502,0.2602,0.2601,0.2599,0.2598,0.2597,0,0.1609,0.1707,0.1758,0.1791,0.1899,0.1959,0.2028,0.2135,0.2199,0.232,0.2386,0.2474,0.2547,0.2589,0.2644,0.2618,0.2736,0.2696,0.2586,0.2577,0.2656,0.2645,0.2756,0.2756,0.2756,0.2756,0.2755,0,0.1582,0.1632,0.1746,0.1774,0.185,0.1941,0.2035,0.2116,0.2239,0.231,0.2418,0.2482,0.2587,0.2666,0.2681,0.2677,0.2774,0.2601,0.259,0.2679,0.267,0.2665,0.2653,0.2759,0.2758,0.2758,0.2757,0,0.1512,0.1586,0.1654,0.178,0.1826,0.1884,0.204,0.2099,0.2233,0.2333,0.2383,0.2532,0.2622,0.2707,0.2787,0.2719,0.2726,0.27,0.2815,0.2809,0.2532,0.2522,0.2568,0.2564,0.256,0.2557,0.2555,0,0.1476,0.1503,0.164,0.1686,0.1755,0.1859,0.1925,0.2076,0.2137,0.2334,0.2365,0.2522,0.2598,0.2604,0.2693,0.272,0.2688,0.2677,0.2568,0.2527,0.2513,0.2509,0.2505,0.2549,0.2548,0.2547,0.2546,0,0.1408,0.1471,0.1529,0.1619,0.1702,0.1777,0.189,0.1921,0.2083,0.2228,0.2293,0.2348,0.245,0.2503,0.2561,0.2566,0.2667,0.2637,0.2643,0.254,0.2503,0.2492,0.2492,0.2533,0.2535,0.2536,0.2537,0,0.1361,0.1385,0.1467,0.1537,0.1631,0.1671,0.1741,0.1817,0.1896,0.2102,0.2117,0.2277,0.2419,0.2426,0.2471,0.2477,0.2424,0.2329,0.235,0.2366,0.2254,0.2174,0.21,0,0,0,0,0,0.1304,0.1322,0.1379,0.1445,0.1532,0.1587,0.1704,0.1774,0.1925,0.1917,0.2011,0.2088,0.2157,0.2242,0.2207,0.2384,0.2438,0.2332,0.234,0.2461,0.2476,0.2362,0,0,0,0,0,0,0.1267,0.1317,0.134,0.1352,0.1381,0.1458,0.1526,0.1628,0.1629,0.179,0.1839,0.1966,0.2067,0.216,0.217,0.2196,0.2158,0.2436,0.243,0.2452,0.2466,0.2478,0.2366,0,0,0,0,0]},{"header":{"parameterUnit":"m.s-1","parameterCategory":2,"la1":30.2991,"la2":30.254,"lo1":-89.0895,"lo2":-89.0444,"dy":0.0017,"dx":0.0017,"nx":28,"ny":28,"refTime":"2025-01-02T03:00:00:Z","depth":"4","parameterNumber":3,"parameterNumberName":"V-component_of_CURRENTS"},"data":[0,0,0,0,0,0,0,0,0,0,0,0,0,0,0,0,0,0,0,0,0,0,0,0,0,0,0,0,0,0,0,0,0,0,0,0,0,0,0,0,0,0,0,0,0,0,0,0,0,0,0,0,0,0,0,0,0,0,0.0149,0.0149,0,0.0105,0.0104,0.0104,0.0088,0.0088,0.0089,0.0089,0.0036,0.0035,0.0033,0,0,0,0,0,0,0,0,0,0,0,0,0,0.018,0.0179,0.0149,0.0149,0.0148,0.0105,0.0104,0.0104,0.0088,0.0088,0.0089,0.0089,0.0037,0.0035,0.0033,0,0,0,0,0,0,0,0,0,0,0,0,0,0.0154,0.0179,0.0149,0.0136,0.0134,0.0105,0.0104,0.0103,0.0088,0.0088,0.0089,0.0089,0.0038,0.0035,0.0033,0.0012,0,0,0.0026,0.0025,0,0,0,0,0,0,0,0,0.0155,0.0153,0.0138,0.0137,0.0135,0.0103,0.0096,0.0073,0.0088,0.0105,0.0089,0.0089,0.0058,0.0054,0.0044,0.0009,0.0007,0.0025,0.0024,0.0023,0.0022,0,0,0,0,0,0,0,0.0157,0.0154,0.0131,0.0138,0.0135,0.0118,0.0115,0.0091,0.008,0.0104,0.0102,0.0098,0.0057,0.0047,0.0043,0.0006,0.0025,0.0023,0.0022,0.0021,-0.003,-0.003,0,0,0,0,0,0,0.0165,0.0156,0.0133,0.013,0.0147,0.0117,0.0114,0.0112,0.008,0.0076,0.0098,0.0098,0.0051,0.0046,0.0041,0.0045,0.0023,0.0021,0.0019,-0.003,-0.003,-0.003,0,0,0,0,0,0,0.0166,0.0164,0.0134,0.0142,0.0137,0.0117,0.0115,0.0111,0.0104,0.0076,0.0071,0.0095,0.0051,0.0044,0.0031,0.0042,0.002,0.0017,-0.003,-0.003,-0.003,0.0033,0,0,0,0,0,0,0.0167,0.0164,0.0165,0.0143,0.0137,0.0127,0.0115,0.011,0.0101,0.0101,0.0072,0.0067,0.005,0.0035,0.0029,0.0038,0.0016,-0.003,-0.003,-0.003,0.0031,0.0035,0.0039,0,0,0,0,0,0.0169,0.0172,0.0165,0.0162,0.0139,0.0128,0.0124,0.0109,0.0101,0.0103,0.0085,0.0068,0.0031,0.0033,0.0026,0.0035,-0.0031,-0.003,-0.003,0.0029,0.0035,0.0039,0,0,0,0,0,0,0.0183,0.017,0.0162,0.016,0.0149,0.0126,0.0123,0.0111,0.0097,0.0097,0.0069,0.0064,0.0054,0.0032,0.0035,0.0019,-0.0003,-0.0004,0.0045,0.0049,0.0053,0.007,0.0014,0,0,0,0,0,0.0187,0.0189,0.017,0.017,0.0165,0.0144,0.0136,0.0128,0.0112,0.0106,0.0085,0.0063,0.0047,0.004,0.0019,0.0011,-0.002,0.001,0.0014,0.0018,0.0025,-0.0009,-0.0007,-0.0029,-0.0029,-0.0029,0,0,0.0193,0.0186,0.0186,0.0174,0.0162,0.0166,0.014,0.0135,0.0141,0.0101,0.0101,0.0075,0.0047,0.0041,0.0035,0.0027,0.0006,0.0018,0.0022,0.0027,-0.0009,-0.0007,-0.0005,-0.0029,-0.0029,-0.0029,0,0,0.0213,0.02,0.021,0.0205,0.0193,0.0182,0.0183,0.0162,0.0157,0.0148,0.0125,0.0108,0.0078,0.0067,0.0056,0.0067,0.0027,0.0056,0.0095,0.0062,0.0064,0.0065,0.0024,0.0021,0.0062,0.0063,0.0063,0,0.022,0.0232,0.0211,0.0221,0.0224,0.0194,0.021,0.0198,0.0177,0.0176,0.0158,0.0118,0.0093,0.0092,0.0099,0.0078,0.0048,0.0083,0.0069,0.0069,0.0069,0.0027,0.0023,0.0066,0.0065,0.0065,0.0065,0,0.025,0.026,0.0265,0.0273,0.0272,0.0279,0.0264,0.0261,0.0244,0.0229,0.0217,0.0178,0.0158,0.0145,0.0126,0.012,0.0094,0.0076,0.0061,0.0076,0.003,0.0024,0.007,0.0069,0.0068,0.0067,0,0,0.0269,0.0285,0.0288,0.0306,0.0302,0.0307,0.0317,0.0319,0.0328,0.0295,0.0301,0.0266,0.0237,0.0222,0.0192,0.0164,0.0136,0.0127,0.0124,0.0095,0.0054,0.0037,0.0029,0.0116,0.0116,0.0115,0.002,0,0.0301,0.0339,0.0337,0.0376,0.0394,0.0379,0.0395,0.039,0.0373,0.0368,0.0325,0.0313,0.027,0.0261,0.0227,0.0159,0.0125,0.0163,0.0037,0.0033,0.0023,0.0024,0.0114,0.0016,0.0014,0.0014,0.0013,0,0.0332,0.0357,0.0402,0.0437,0.0444,0.0461,0.0482,0.0491,0.0474,0.0457,0.0431,0.0391,0.0352,0.0309,0.0202,0.0227,0.0148,0.0089,0.0084,0.0044,0.0007,-0.0004,0.0003,0.0003,0.0004,0.0005,0.0006,0,0.0362,0.0402,0.0445,0.0456,0.0486,0.0507,0.0521,0.0519,0.0538,0.0512,0.0513,0.0451,0.0422,0.0323,0.0199,0.0199,0.007,0.0051,-0.004,-0.0043,-0.0027,-0.0027,-0.0027,-0.0027,-0.0027,-0.0027,-0.0027,0,0.0394,0.0429,0.0464,0.0488,0.0544,0.0547,0.0597,0.0595,0.0603,0.0626,0.0563,0.0556,0.0424,0.0335,0.0216,0.0071,0.0077,-0.0034,-0.0066,0.0,0.0004,-0.0031,-0.003,-0.003,-0.003,-0.0029,-0.0028,0,0.0415,0.0439,0.0493,0.0539,0.056,0.0597,0.0654,0.0685,0.0681,0.0706,0.0704,0.0632,0.0511,0.0368,0.0198,0.0097,-0.0042,-0.0098,-0.0019,-0.0046,-0.0139,-0.0134,-0.0206,-0.0207,-0.0208,-0.0209,-0.021,0,0.0427,0.0458,0.053,0.0568,0.0592,0.065,0.0694,0.0719,0.0751,0.075,0.0762,0.0667,0.0596,0.0349,0.0188,-0.0044,-0.0078,-0.0156,-0.0143,-0.0132,-0.0156,-0.0149,-0.0143,-0.0212,-0.0212,-0.0212,-0.0213,0,0.0451,0.0478,0.0521,0.0599,0.0657,0.0724,0.0782,0.0814,0.0839,0.0845,0.0808,0.0686,0.0545,0.0352,0.0168,0.0003,-0.0106,-0.0169,-0.0167,-0.0156,-0.014,-0.0162,-0.0154,-0.0216,-0.0216,-0.0216,-0.0215,0,0.0464,0.0495,0.0553,0.0621,0.0697,0.0763,0.08,0.0835,0.0868,0.0867,0.0851,0.0703,0.0623,0.0375,0.0208,0.0041,-0.0003,-0.0058,-0.0063,-0.0061,0.0008,0.0051,0.0008,0,0,0,0,0,0.0469,0.0503,0.0569,0.0642,0.0719,0.0764,0.0843,0.0873,0.0905,0.0887,0.0872,0.0741,0.0498,0.0396,0.0227,0.017,-0.0043,-0.0036,-0.0111,-0.0238,-0.0234,-0.0179,0,0,0,0,0,0,0.0471,0.0529,0.0562,0.0645,0.0697,0.0783,0.0836,0.0863,0.0854,0.0861,0.0739,0.0688,0.0454,0.0592,0.0219,0.0169,0.0095,-0.0144,-0.0148,-0.0241,-0.0237,-0.0233,-0.0175,0,0,0,0,0]}]]